Time,TemperatureF,DewpointF,PressureIn,WindDirection,WindDirectionDegrees,WindSpeedMPH,WindSpeedGustMPH,Humidity,HourlyPrecipIn,Conditions,Clouds,dailyrainin,SoftwareType,DateUTC
2013-01-28 00:00:00,71.3,71.3,30.25,ENE,67,1.0,7.0,100,0.00,,,-99.99,WeatherLink 5.5,2013-01-28 05:00:00,
2013-01-28 00:05:00,71.2,71.2,30.25,ENE,67,2.0,12.0,100,0.00,,,-99.99,WeatherLink 5.5,2013-01-28 05:05:00,
2013-01-28 00:10:00,71.2,71.2,30.25,East,90,3.0,9.0,100,0.00,,,-99.99,WeatherLink 5.5,2013-01-28 05:10:00,
2013-01-28 00:20:00,71.1,71.1,30.24,ENE,67,2.0,7.0,100,0.00,,,-99.99,WeatherLink 5.5,2013-01-28 05:20:00,
2013-01-28 00:25:00,71.2,71.2,30.24,ENE,67,2.0,6.0,100,0.00,,,-99.99,WeatherLink 5.5,2013-01-28 05:25:00,
2013-01-28 00:35:00,71.1,71.1,30.25,East,90,2.0,7.0,100,0.00,,,-99.99,WeatherLink 5.5,2013-01-28 05:35:00,
2013-01-28 00:40:00,71.1,71.1,30.25,East,90,3.0,7.0,100,0.00,,,-99.99,WeatherLink 5.5,2013-01-28 05:40:00,
2013-01-28 00:50:00,71.1,71.1,30.24,East,90,2.0,7.0,100,0.00,,,-99.99,WeatherLink 5.5,2013-01-28 05:50:00,
2013-01-28 01:01:00,71.0,71.0,30.24,ENE,67,2.0,7.0,100,0.00,,,-99.99,WeatherLink 5.5,2013-01-28 06:01:00,
2013-01-28 01:10:00,70.9,70.9,30.24,East,90,2.0,8.0,100,0.00,,,-99.99,WeatherLink 5.5,2013-01-28 06:10:00,
2013-01-28 01:15:00,70.9,70.9,30.24,East,90,3.0,9.0,100,0.00,,,-99.99,WeatherLink 5.5,2013-01-28 06:15:00,
2013-01-28 01:25:00,70.9,70.9,30.24,ENE,67,1.0,10.0,100,0.00,,,-99.99,WeatherLink 5.5,2013-01-28 06:25:00,
2013-01-28 01:30:00,70.9,70.9,30.24,East,90,1.0,6.0,100,0.00,,,-99.99,WeatherLink 5.5,2013-01-28 06:30:00,
2013-01-28 01:35:00,70.8,70.8,30.24,ENE,67,2.0,8.0,100,0.00,,,-99.99,WeatherLink 5.5,2013-01-28 06:35:00,
2013-01-28 01:45:00,70.8,70.8,30.24,ENE,67,1.0,5.0,100,0.00,,,-99.99,WeatherLink 5.5,2013-01-28 06:45:00,
2013-01-28 01:50:00,70.8,70.8,30.24,East,90,1.0,8.0,100,0.00,,,-99.99,WeatherLink 5.5,2013-01-28 06:50:00,
2013-01-28 02:00:00,70.7,70.7,30.23,East,90,2.0,9.0,100,0.00,,,-99.99,WeatherLink 5.5,2013-01-28 07:00:00,
2013-01-28 02:05:00,70.8,70.8,30.23,East,90,3.0,10.0,100,0.00,,,-99.99,WeatherLink 5.5,2013-01-28 07:05:00,
2013-01-28 02:15:00,70.8,70.8,30.23,ENE,67,3.0,10.0,100,0.00,,,-99.99,WeatherLink 5.5,2013-01-28 07:15:00,
2013-01-28 02:20:00,71.0,71.0,30.23,East,90,3.0,9.0,100,0.00,,,-99.99,WeatherLink 5.5,2013-01-28 07:20:00,
2013-01-28 02:30:00,71.1,71.1,30.23,East,90,4.0,12.0,100,0.00,,,-99.99,WeatherLink 5.5,2013-01-28 07:30:00,
2013-01-28 02:35:00,71.1,71.1,30.23,East,90,2.0,10.0,100,0.00,,,-99.99,WeatherLink 5.5,2013-01-28 07:35:00,
2013-01-28 02:40:00,71.1,71.1,30.23,East,90,1.0,6.0,100,0.00,,,-99.99,WeatherLink 5.5,2013-01-28 07:40:00,
2013-01-28 02:50:00,70.9,70.9,30.23,East,90,1.0,7.0,100,0.00,,,-99.99,WeatherLink 5.5,2013-01-28 07:50:00,
2013-01-28 03:00:00,70.9,70.9,30.23,East,90,0.0,3.0,100,0.00,,,-99.99,WeatherLink 5.5,2013-01-28 08:00:00,
2013-01-28 03:06:00,70.9,70.9,30.23,East,90,1.0,6.0,100,0.00,,,-99.99,WeatherLink 5.5,2013-01-28 08:06:00,
2013-01-28 03:15:00,70.9,70.9,30.23,East,90,2.0,6.0,100,0.00,,,-99.99,WeatherLink 5.5,2013-01-28 08:15:00,
2013-01-28 03:20:00,71.0,71.0,30.23,East,90,1.0,4.0,100,0.00,,,-99.99,WeatherLink 5.5,2013-01-28 08:20:00,
2013-01-28 03:28:00,71.0,71.0,30.23,East,90,1.0,6.0,100,0.00,,,-99.99,WeatherLink 5.5,2013-01-28 08:28:00,
2013-01-28 03:35:00,71.0,71.0,30.23,East,90,1.0,5.0,100,0.00,,,-99.99,WeatherLink 5.5,2013-01-28 08:35:00,
2013-01-28 03:40:00,71.0,71.0,30.23,East,90,1.0,7.0,100,0.00,,,-99.99,WeatherLink 5.5,2013-01-28 08:40:00,
2013-01-28 03:50:00,71.3,71.3,30.23,East,90,1.0,6.0,100,0.00,,,-99.99,WeatherLink 5.5,2013-01-28 08:50:00,
2013-01-28 04:00:00,71.3,71.3,30.23,East,90,1.0,6.0,100,0.00,,,-99.99,WeatherLink 5.5,2013-01-28 09:00:00,
2013-01-28 04:10:00,71.3,71.3,30.23,East,90,1.0,8.0,100,0.00,,,-99.99,WeatherLink 5.5,2013-01-28 09:10:00,
2013-01-28 04:15:00,71.2,71.2,30.23,East,90,1.0,6.0,100,0.00,,,-99.99,WeatherLink 5.5,2013-01-28 09:15:00,
2013-01-28 04:25:00,71.0,71.0,30.22,East,90,2.0,7.0,100,0.00,,,-99.99,WeatherLink 5.5,2013-01-28 09:25:00,
2013-01-28 04:35:00,70.6,70.6,30.22,East,90,2.0,6.0,100,0.00,,,-99.99,WeatherLink 5.5,2013-01-28 09:35:00,
2013-01-28 04:40:00,70.2,70.2,30.22,East,90,3.0,8.0,100,0.00,,,-99.99,WeatherLink 5.5,2013-01-28 09:40:00,
2013-01-28 04:50:00,70.2,70.2,30.22,East,90,2.0,7.0,100,0.00,,,-99.99,WeatherLink 5.5,2013-01-28 09:50:00,
2013-01-28 04:55:00,70.2,70.2,30.22,East,90,2.0,7.0,100,0.00,,,-99.99,WeatherLink 5.5,2013-01-28 09:55:00,
2013-01-28 05:05:00,70.1,70.1,30.22,East,90,0.0,4.0,100,0.00,,,-99.99,WeatherLink 5.5,2013-01-28 10:05:00,
2013-01-28 05:15:00,70.0,70.0,30.22,East,90,4.0,10.0,100,0.00,,,-99.99,WeatherLink 5.5,2013-01-28 10:15:00,
2013-01-28 05:25:00,70.0,70.0,30.22,East,90,1.0,5.0,100,0.00,,,-99.99,WeatherLink 5.5,2013-01-28 10:25:00,
2013-01-28 05:30:00,69.9,69.9,30.23,East,90,1.0,6.0,100,0.00,,,-99.99,WeatherLink 5.5,2013-01-28 10:30:00,
2013-01-28 05:40:00,69.6,69.6,30.23,East,90,1.0,6.0,100,0.00,,,-99.99,WeatherLink 5.5,2013-01-28 10:40:00,
2013-01-28 05:50:00,69.7,69.7,30.23,East,90,1.0,5.0,100,0.00,,,-99.99,WeatherLink 5.5,2013-01-28 10:50:00,
2013-01-28 06:00:00,69.7,69.7,30.23,East,90,2.0,7.0,100,0.00,,,-99.99,WeatherLink 5.5,2013-01-28 11:00:00,
2013-01-28 06:10:00,70.2,70.2,30.23,East,90,2.0,8.0,100,0.00,,,-99.99,WeatherLink 5.5,2013-01-28 11:10:00,
2013-01-28 06:20:00,69.1,69.1,30.24,East,90,2.0,8.0,100,0.00,,,-99.99,WeatherLink 5.5,2013-01-28 11:20:00,
2013-01-28 06:25:00,66.7,66.7,30.24,East,90,2.0,7.0,100,0.00,,,-99.99,WeatherLink 5.5,2013-01-28 11:25:00,
2013-01-28 06:35:00,70.3,70.3,30.24,East,90,2.0,7.0,100,0.00,,,-99.99,WeatherLink 5.5,2013-01-28 11:35:00,
2013-01-28 06:40:00,70.4,70.4,30.24,East,90,2.0,6.0,100,0.00,,,-99.99,WeatherLink 5.5,2013-01-28 11:40:00,
2013-01-28 06:46:00,70.5,70.5,30.24,East,90,1.0,7.0,100,0.00,,,-99.99,WeatherLink 5.5,2013-01-28 11:46:00,
2013-01-28 06:55:00,70.7,70.7,30.24,East,90,1.0,7.0,100,0.00,,,-99.99,WeatherLink 5.5,2013-01-28 11:55:00,
2013-01-28 07:00:00,70.7,70.7,30.25,East,90,1.0,9.0,100,0.00,,,-99.99,WeatherLink 5.5,2013-01-28 12:00:00,
2013-01-28 07:11:00,70.6,70.6,30.25,East,90,1.0,6.0,100,0.00,,,-99.99,WeatherLink 5.5,2013-01-28 12:11:00,
2013-01-28 07:20:00,70.5,70.5,30.25,East,90,2.0,8.0,100,0.00,,,-99.99,WeatherLink 5.5,2013-01-28 12:20:00,
2013-01-28 07:25:00,70.5,70.5,30.25,East,90,2.0,6.0,100,0.00,,,-99.99,WeatherLink 5.5,2013-01-28 12:25:00,
2013-01-28 07:35:00,70.5,70.5,30.26,East,90,1.0,7.0,100,0.00,,,-99.99,WeatherLink 5.5,2013-01-28 12:35:00,
2013-01-28 07:40:00,70.4,70.4,30.26,East,90,2.0,7.0,100,0.00,,,-99.99,WeatherLink 5.5,2013-01-28 12:40:00,
2013-01-28 07:45:00,70.1,70.1,30.26,East,90,1.0,8.0,100,0.00,,,-99.99,WeatherLink 5.5,2013-01-28 12:45:00,
2013-01-28 07:55:00,68.0,68.0,30.26,East,90,3.0,9.0,100,0.00,,,-99.99,WeatherLink 5.5,2013-01-28 12:55:00,
2013-01-28 08:05:00,54.2,54.2,30.26,East,90,3.0,9.0,100,0.00,,,-99.99,WeatherLink 5.5,2013-01-28 13:05:00,
2013-01-28 08:10:00,56.3,56.3,30.26,East,90,3.0,8.0,100,0.00,,,-99.99,WeatherLink 5.5,2013-01-28 13:10:00,
2013-01-28 08:20:00,70.6,70.6,30.26,East,90,5.0,12.0,100,0.00,,,-99.99,WeatherLink 5.5,2013-01-28 13:20:00,
2013-01-28 08:25:00,71.8,71.8,30.26,East,90,4.0,13.0,100,0.00,,,-99.99,WeatherLink 5.5,2013-01-28 13:25:00,
2013-01-28 08:30:00,72.4,72.4,30.26,East,90,4.0,10.0,100,0.00,,,-99.99,WeatherLink 5.5,2013-01-28 13:30:00,
2013-01-28 08:40:00,72.9,72.9,30.27,East,90,2.0,8.0,100,0.00,,,-99.99,WeatherLink 5.5,2013-01-28 13:40:00,
2013-01-28 08:50:00,73.3,73.3,30.27,ESE,112,4.0,9.0,100,0.00,,,-99.99,WeatherLink 5.5,2013-01-28 13:50:00,
2013-01-28 09:00:00,73.6,73.6,30.27,East,90,5.0,12.0,100,0.00,,,-99.99,WeatherLink 5.5,2013-01-28 14:00:00,
2013-01-28 09:05:00,73.7,73.7,30.27,East,90,5.0,11.0,100,0.00,,,-99.99,WeatherLink 5.5,2013-01-28 14:05:00,
2013-01-28 09:15:00,74.1,74.1,30.28,East,90,6.0,12.0,100,0.00,,,-99.99,WeatherLink 5.5,2013-01-28 14:15:00,
2013-01-28 09:25:00,74.3,74.3,30.28,East,90,6.0,12.0,100,0.00,,,-99.99,WeatherLink 5.5,2013-01-28 14:25:00,
2013-01-28 09:30:00,74.3,74.3,30.28,East,90,7.0,13.0,100,0.00,,,-99.99,WeatherLink 5.5,2013-01-28 14:30:00,
2013-01-28 09:40:00,74.8,74.8,30.29,East,90,6.0,13.0,100,0.00,,,-99.99,WeatherLink 5.5,2013-01-28 14:40:00,
2013-01-28 09:45:00,74.8,74.8,30.29,East,90,6.0,12.0,100,0.00,,,-99.99,WeatherLink 5.5,2013-01-28 14:45:00,
2013-01-28 09:50:00,74.8,74.8,30.29,ENE,67,5.0,12.0,100,0.00,,,-99.99,WeatherLink 5.5,2013-01-28 14:50:00,
2013-01-28 10:00:00,75.4,75.4,30.29,ENE,67,5.0,12.0,100,0.00,,,-99.99,WeatherLink 5.5,2013-01-28 15:00:00,
2013-01-28 10:10:00,75.3,75.3,30.30,East,90,6.0,12.0,100,0.00,,,-99.99,WeatherLink 5.5,2013-01-28 15:10:00,
2013-01-28 10:15:00,75.5,75.5,30.30,East,90,5.0,10.0,100,0.00,,,-99.99,WeatherLink 5.5,2013-01-28 15:15:00,
2013-01-28 10:25:00,76.2,76.2,30.30,East,90,8.0,13.0,100,0.00,,,-99.99,WeatherLink 5.5,2013-01-28 15:25:00,
2013-01-28 10:30:00,76.3,76.3,30.30,East,90,7.0,14.0,100,0.00,,,-99.99,WeatherLink 5.5,2013-01-28 15:30:00,
2013-01-28 10:40:00,75.8,75.8,30.30,East,90,4.0,9.0,100,0.00,,,-99.99,WeatherLink 5.5,2013-01-28 15:40:00,
2013-01-28 10:50:00,76.7,76.7,30.30,ESE,112,5.0,11.0,100,0.00,,,-99.99,WeatherLink 5.5,2013-01-28 15:50:00,
2013-01-28 10:55:00,76.6,76.6,30.30,ENE,67,6.0,12.0,100,0.00,,,-99.99,WeatherLink 5.5,2013-01-28 15:55:00,
2013-01-28 11:00:00,76.6,76.6,30.30,East,90,5.0,10.0,100,0.00,,,-99.99,WeatherLink 5.5,2013-01-28 16:00:00,
2013-01-28 11:10:00,76.6,76.6,30.30,ESE,112,6.0,12.0,100,0.00,,,-99.99,WeatherLink 5.5,2013-01-28 16:10:00,
2013-01-28 11:20:00,72.8,72.8,30.30,ESE,112,6.0,13.0,100,0.00,,,-99.99,WeatherLink 5.5,2013-01-28 16:20:00,
2013-01-28 11:25:00,71.5,71.5,30.30,ESE,112,7.0,11.0,100,0.00,,,-99.99,WeatherLink 5.5,2013-01-28 16:25:00,
2013-01-28 11:30:00,70.6,70.6,30.30,ESE,112,4.0,11.0,100,0.00,,,-99.99,WeatherLink 5.5,2013-01-28 16:30:00,
2013-01-28 11:41:00,63.9,63.9,30.29,East,90,5.0,10.0,100,0.00,,,-99.99,WeatherLink 5.5,2013-01-28 16:41:00,
2013-01-28 11:50:00,50.6,50.6,30.29,ESE,112,4.0,13.0,100,0.00,,,-99.99,WeatherLink 5.5,2013-01-28 16:50:00,
2013-01-28 12:00:00,57.7,57.7,30.29,East,90,4.0,10.0,100,0.00,,,-99.99,WeatherLink 5.5,2013-01-28 17:00:00,
2013-01-28 12:05:00,60.9,60.9,30.29,ESE,112,7.0,13.0,100,0.00,,,-99.99,WeatherLink 5.5,2013-01-28 17:05:00,
2013-01-28 12:15:00,66.4,66.4,30.28,East,90,6.0,14.0,100,0.00,,,-99.99,WeatherLink 5.5,2013-01-28 17:15:00,
2013-01-28 12:25:00,53.9,53.9,30.28,ESE,112,6.0,13.0,100,0.00,,,-99.99,WeatherLink 5.5,2013-01-28 17:25:00,
2013-01-28 12:35:00,55.1,55.1,30.27,East,90,7.0,14.0,100,0.00,,,-99.99,WeatherLink 5.5,2013-01-28 17:35:00,
2013-01-28 12:40:00,54.5,54.5,30.27,East,90,5.0,11.0,100,0.00,,,-99.99,WeatherLink 5.5,2013-01-28 17:40:00,
2013-01-28 12:50:00,79.1,79.1,30.26,ESE,112,6.0,15.0,100,0.00,,,-99.99,WeatherLink 5.5,2013-01-28 17:50:00,
2013-01-28 12:55:00,79.4,79.4,30.26,ESE,112,4.0,10.0,100,0.00,,,-99.99,WeatherLink 5.5,2013-01-28 17:55:00,
2013-01-28 13:05:00,79.1,79.1,30.26,ESE,112,5.0,14.0,100,0.00,,,-99.99,WeatherLink 5.5,2013-01-28 18:05:00,
2013-01-28 13:10:00,79.1,79.1,30.25,East,90,4.0,11.0,100,0.00,,,-99.99,WeatherLink 5.5,2013-01-28 18:10:00,
2013-01-28 13:20:00,78.9,78.9,30.24,East,90,7.0,13.0,100,0.00,,,-99.99,WeatherLink 5.5,2013-01-28 18:20:00,
2013-01-28 13:25:00,78.9,78.9,30.24,East,90,5.0,10.0,100,0.00,,,-99.99,WeatherLink 5.5,2013-01-28 18:25:00,
2013-01-28 13:30:00,78.7,78.7,30.24,East,90,6.0,13.0,100,0.00,,,-99.99,WeatherLink 5.5,2013-01-28 18:30:00,
2013-01-28 13:40:00,78.5,78.5,30.23,East,90,7.0,12.0,100,0.00,,,-99.99,WeatherLink 5.5,2013-01-28 18:40:00,
2013-01-28 13:50:00,78.7,78.7,30.23,ESE,112,7.0,14.0,100,0.00,,,-99.99,WeatherLink 5.5,2013-01-28 18:50:00,
2013-01-28 14:00:00,78.4,78.4,30.23,ESE,112,6.0,11.0,100,0.00,,,-99.99,WeatherLink 5.5,2013-01-28 19:00:00,
2013-01-28 14:05:00,78.5,78.5,30.23,ESE,112,6.0,14.0,100,0.00,,,-99.99,WeatherLink 5.5,2013-01-28 19:05:00,
2013-01-28 14:10:00,78.5,78.5,30.23,East,90,5.0,9.0,100,0.00,,,-99.99,WeatherLink 5.5,2013-01-28 19:10:00,
2013-01-28 14:20:00,78.6,78.6,30.23,ESE,112,6.0,14.0,100,0.00,,,-99.99,WeatherLink 5.5,2013-01-28 19:20:00,
2013-01-28 14:26:00,78.6,78.6,30.23,ESE,112,5.0,11.0,100,0.00,,,-99.99,WeatherLink 5.5,2013-01-28 19:26:00,
2013-01-28 14:35:00,78.6,78.6,30.22,East,90,4.0,10.0,100,0.00,,,-99.99,WeatherLink 5.5,2013-01-28 19:35:00,
2013-01-28 14:40:00,78.5,78.5,30.22,ESE,112,6.0,12.0,100,0.00,,,-99.99,WeatherLink 5.5,2013-01-28 19:40:00,
2013-01-28 14:46:00,78.8,78.8,30.22,East,90,5.0,12.0,100,0.00,,,-99.99,WeatherLink 5.5,2013-01-28 19:46:00,
2013-01-28 14:55:00,78.7,78.7,30.22,ESE,112,6.0,14.0,100,0.00,,,-99.99,WeatherLink 5.5,2013-01-28 19:55:00,
2013-01-28 15:05:00,74.8,74.8,30.22,ESE,112,7.0,16.0,100,0.00,,,-99.99,WeatherLink 5.5,2013-01-28 20:05:00,
2013-01-28 15:15:00,78.0,-99.9,30.22,ESE,112,5.0,13.0,-999,0.00,,,-99.99,WeatherLink 5.5,2013-01-28 20:15:00,
2013-01-28 15:25:00,78.3,78.3,30.22,ESE,112,6.0,12.0,100,0.00,,,-99.99,WeatherLink 5.5,2013-01-28 20:25:00,
2013-01-28 15:36:00,78.4,78.4,30.21,ESE,112,4.0,11.0,100,0.00,,,-99.99,WeatherLink 5.5,2013-01-28 20:36:00,
2013-01-28 15:45:00,78.5,78.5,30.21,ESE,112,4.0,9.0,100,0.00,,,-99.99,WeatherLink 5.5,2013-01-28 20:45:00,
2013-01-28 15:55:00,78.3,78.3,30.21,East,90,5.0,10.0,100,0.00,,,-99.99,WeatherLink 5.5,2013-01-28 20:55:00,
2013-01-28 16:06:00,78.1,78.1,30.20,East,90,7.0,12.0,100,0.00,,,-99.99,WeatherLink 5.5,2013-01-28 21:06:00,
2013-01-28 16:15:00,77.7,77.7,30.20,East,90,6.0,12.0,100,0.00,,,-99.99,WeatherLink 5.5,2013-01-28 21:15:00,
2013-01-28 16:25:00,77.3,77.3,30.20,ESE,112,5.0,9.0,100,0.00,,,-99.99,WeatherLink 5.5,2013-01-28 21:25:00,
2013-01-28 16:35:00,76.8,76.8,30.21,East,90,5.0,11.0,100,0.00,,,-99.99,WeatherLink 5.5,2013-01-28 21:35:00,
2013-01-28 16:40:00,76.3,76.3,30.21,East,90,5.0,12.0,100,0.00,,,-99.99,WeatherLink 5.5,2013-01-28 21:40:00,
2013-01-28 16:50:00,76.1,76.1,30.21,East,90,5.0,10.0,100,0.00,,,-99.99,WeatherLink 5.5,2013-01-28 21:50:00,
2013-01-28 17:01:00,76.0,76.0,30.20,ESE,112,6.0,11.0,100,0.00,,,-99.99,WeatherLink 5.5,2013-01-28 22:01:00,
2013-01-28 17:10:00,76.0,76.0,30.21,East,90,6.0,12.0,100,0.00,,,-99.99,WeatherLink 5.5,2013-01-28 22:10:00,
2013-01-28 17:20:00,76.0,76.0,30.21,East,90,4.0,9.0,100,0.00,,,-99.99,WeatherLink 5.5,2013-01-28 22:20:00,
2013-01-28 17:25:00,76.0,76.0,30.21,East,90,5.0,10.0,100,0.00,,,-99.99,WeatherLink 5.5,2013-01-28 22:25:00,
2013-01-28 17:30:00,75.5,75.5,30.21,East,90,2.0,9.0,100,0.00,,,-99.99,WeatherLink 5.5,2013-01-28 22:30:00,
2013-01-28 17:40:00,75.0,75.0,30.22,East,90,4.0,9.0,100,0.00,,,-99.99,WeatherLink 5.5,2013-01-28 22:40:00,
2013-01-28 17:45:00,74.8,74.8,30.22,East,90,5.0,11.0,100,0.00,,,-99.99,WeatherLink 5.5,2013-01-28 22:45:00,
2013-01-28 17:55:00,74.8,74.8,30.22,ESE,112,4.0,9.0,100,0.00,,,-99.99,WeatherLink 5.5,2013-01-28 22:55:00,
2013-01-28 18:00:00,74.7,74.7,30.22,ESE,112,2.0,8.0,100,0.00,,,-99.99,WeatherLink 5.5,2013-01-28 23:00:00,
2013-01-28 18:10:00,74.3,74.3,30.22,ESE,112,3.0,7.0,100,0.00,,,-99.99,WeatherLink 5.5,2013-01-28 23:10:00,
2013-01-28 18:15:00,74.2,74.2,30.22,East,90,2.0,6.0,100,0.00,,,-99.99,WeatherLink 5.5,2013-01-28 23:15:00,
2013-01-28 18:25:00,73.9,73.9,30.22,ESE,112,3.0,9.0,100,0.00,,,-99.99,WeatherLink 5.5,2013-01-28 23:25:00,
2013-01-28 18:30:00,73.8,73.8,30.22,East,90,2.0,7.0,100,0.00,,,-99.99,WeatherLink 5.5,2013-01-28 23:30:00,
2013-01-28 18:35:00,73.1,73.1,30.22,ESE,112,2.0,8.0,100,0.00,,,-99.99,WeatherLink 5.5,2013-01-28 23:35:00,
2013-01-28 18:45:00,73.0,73.0,30.22,East,90,1.0,7.0,100,0.00,,,-99.99,WeatherLink 5.5,2013-01-28 23:45:00,
2013-01-28 18:55:00,72.9,72.9,30.23,East,90,1.0,5.0,100,0.00,,,-99.99,WeatherLink 5.5,2013-01-28 23:55:00,
2013-01-28 19:05:00,72.8,72.8,30.23,East,90,3.0,7.0,100,0.00,,,-99.99,WeatherLink 5.5,2013-01-29 00:05:00,
2013-01-28 19:10:00,72.8,72.8,30.23,East,90,2.0,9.0,100,0.00,,,-99.99,WeatherLink 5.5,2013-01-29 00:10:00,
2013-01-28 19:20:00,73.0,73.0,30.23,East,90,1.0,5.0,100,0.00,,,-99.99,WeatherLink 5.5,2013-01-29 00:20:00,
2013-01-28 19:30:00,72.8,72.8,30.23,East,90,2.0,7.0,100,0.00,,,-99.99,WeatherLink 5.5,2013-01-29 00:30:00,
2013-01-28 19:35:00,72.7,72.7,30.23,East,90,1.0,5.0,100,0.00,,,-99.99,WeatherLink 5.5,2013-01-29 00:35:00,
2013-01-28 19:45:00,72.7,72.7,30.23,East,90,1.0,4.0,100,0.00,,,-99.99,WeatherLink 5.5,2013-01-29 00:45:00,
2013-01-28 19:50:00,72.8,72.8,30.23,East,90,1.0,8.0,100,0.00,,,-99.99,WeatherLink 5.5,2013-01-29 00:50:00,
2013-01-28 20:00:00,72.6,72.6,30.23,East,90,0.0,5.0,100,0.00,,,-99.99,WeatherLink 5.5,2013-01-29 01:00:00,
2013-01-28 20:06:00,72.6,72.6,30.23,East,90,1.0,6.0,100,0.00,,,-99.99,WeatherLink 5.5,2013-01-29 01:06:00,
2013-01-28 20:15:00,72.3,72.3,30.23,East,90,2.0,7.0,100,0.00,,,-99.99,WeatherLink 5.5,2013-01-29 01:15:00,
2013-01-28 20:20:00,70.0,70.0,30.23,East,90,1.0,5.0,100,0.00,,,-99.99,WeatherLink 5.5,2013-01-29 01:20:00,
2013-01-28 20:25:00,70.9,70.9,30.23,East,90,1.0,6.0,100,0.00,,,-99.99,WeatherLink 5.5,2013-01-29 01:25:00,
2013-01-28 20:35:00,69.8,69.8,30.23,East,90,1.0,7.0,100,0.00,,,-99.99,WeatherLink 5.5,2013-01-29 01:35:00,
2013-01-28 20:40:00,-517.5,-99.9,30.23,East,90,1.0,8.0,100,0.00,,,-99.99,WeatherLink 5.5,2013-01-29 01:40:00,
2013-01-28 20:50:00,73.3,73.3,30.24,East,90,2.0,8.0,100,0.00,,,-99.99,WeatherLink 5.5,2013-01-29 01:50:00,
2013-01-28 21:00:00,73.5,73.5,30.24,East,90,2.0,7.0,100,0.00,,,-99.99,WeatherLink 5.5,2013-01-29 02:00:00,
2013-01-28 21:05:00,73.5,73.5,30.24,East,90,1.0,6.0,100,0.00,,,-99.99,WeatherLink 5.5,2013-01-29 02:05:00,
2013-01-28 21:10:00,73.6,73.6,30.24,East,90,2.0,5.0,100,0.00,,,-99.99,WeatherLink 5.5,2013-01-29 02:10:00,
2013-01-28 21:21:00,73.6,73.6,30.24,East,90,1.0,5.0,100,0.00,,,-99.99,WeatherLink 5.5,2013-01-29 02:21:00,
2013-01-28 21:30:00,73.7,73.7,30.23,East,90,2.0,7.0,100,0.00,,,-99.99,WeatherLink 5.5,2013-01-29 02:30:00,
2013-01-28 21:35:00,73.7,73.7,30.23,East,90,1.0,5.0,100,0.00,,,-99.99,WeatherLink 5.5,2013-01-29 02:35:00,
2013-01-28 21:40:00,73.7,73.7,30.23,East,90,1.0,6.0,100,0.00,,,-99.99,WeatherLink 5.5,2013-01-29 02:40:00,
2013-01-28 21:46:00,73.7,73.7,30.23,East,90,3.0,9.0,100,0.00,,,-99.99,WeatherLink 5.5,2013-01-29 02:46:00,
2013-01-28 21:55:00,73.8,73.8,30.23,East,90,3.0,8.0,100,0.00,,,-99.99,WeatherLink 5.5,2013-01-29 02:55:00,
2013-01-28 22:00:00,73.7,73.7,30.24,East,90,1.0,6.0,100,0.00,,,-99.99,WeatherLink 5.5,2013-01-29 03:00:00,
2013-01-28 22:10:00,73.3,73.3,30.24,East,90,3.0,8.0,100,0.00,,,-99.99,WeatherLink 5.5,2013-01-29 03:10:00,
2013-01-28 22:16:00,73.3,-99.9,30.24,East,90,2.0,6.0,0,0.00,,,-99.99,WeatherLink 5.5,2013-01-29 03:16:00,
2013-01-28 22:25:00,73.1,-99.9,30.24,East,90,2.0,8.0,0,0.00,,,-99.99,WeatherLink 5.5,2013-01-29 03:25:00,
2013-01-28 22:30:00,73.0,-99.9,30.23,ENE,67,2.0,9.0,0,0.00,,,-99.99,WeatherLink 5.5,2013-01-29 03:30:00,
2013-01-28 22:36:00,73.1,-99.9,30.23,ENE,67,3.0,9.0,0,0.00,,,-99.99,WeatherLink 5.5,2013-01-29 03:36:00,
2013-01-28 22:45:00,73.0,-99.9,30.23,East,90,2.0,8.0,0,0.00,,,-99.99,WeatherLink 5.5,2013-01-29 03:45:00,
2013-01-28 22:51:00,73.0,-99.9,30.23,East,90,1.0,6.0,0,0.00,,,-99.99,WeatherLink 5.5,2013-01-29 03:51:00,
2013-01-28 23:00:00,73.0,-99.9,30.23,East,90,1.0,5.0,0,0.00,,,-99.99,WeatherLink 5.5,2013-01-29 04:00:00,
2013-01-28 23:11:00,72.9,8.1,30.23,East,90,1.0,5.0,8,0.00,,,-99.99,WeatherLink 5.5,2013-01-29 04:11:00,
2013-01-28 23:20:00,72.9,24.0,30.22,East,90,1.0,5.0,16,0.00,,,-99.99,WeatherLink 5.5,2013-01-29 04:20:00,
2013-01-28 23:30:00,72.8,29.4,30.22,East,90,0.0,5.0,20,0.00,,,-99.99,WeatherLink 5.5,2013-01-29 04:30:00,
2013-01-28 23:36:00,72.5,30.3,30.22,East,90,1.0,6.0,21,0.00,,,-99.99,WeatherLink 5.5,2013-01-29 04:36:00,
2013-01-28 23:45:00,72.2,35.4,30.22,East,90,2.0,8.0,26,0.00,,,-99.99,WeatherLink 5.5,2013-01-29 04:45:00,
2013-01-28 23:50:00,72.3,36.4,30.21,East,90,2.0,6.0,27,0.00,,,-99.99,WeatherLink 5.5,2013-01-29 04:50:00,
2013-01-28 23:55:00,72.7,33.8,30.21,East,90,1.0,9.0,24,0.00,,,-99.99,WeatherLink 5.5,2013-01-29 04:55:00,